Tillbaka till svenska Fidonet
English   Information   Debug  
FILM   0/18
FNEWS_PUBLISH   4983
FN_SYSOP   42232
FN_SYSOP_OLD1   71952
FTP_FIDO   0/2
FTSC_PUBLIC   0/13976
FUNNY   0/4886
GENEALOGY.EUR   0/71
GET_INFO   105
GOLDED   0/408
HAM   4499/16712
HOLYSMOKE   0/6791
HOT_SITES   0/1
HTMLEDIT   0/71
HUB203   466
HUB_100   264
HUB_400   39
HUMOR   0/29
IC   0/2851
INTERNET   0/424
INTERUSER   0/3
IP_CONNECT   719
JAMNNTPD   0/233
JAMTLAND   0/47
KATTY_KORNER   0/41
LAN   0/16
LINUX-USER   0/19
LINUXHELP   0/1155
LINUX   0/22382
LINUX_BBS   0/957
mail   18.68
mail_fore_ok   249
MENSA   0/341
MODERATOR   0/102
MONTE   0/992
MOSCOW_OKLAHOMA   0/1245
MUFFIN   0/783
MUSIC   0/321
N203_STAT   938
N203_SYSCHAT   313
NET203   321
NET204   69
NET_DEV   0/10
NORD.ADMIN   0/101
NORD.CHAT   0/2572
NORD.FIDONET   189
NORD.HARDWARE   0/28
NORD.KULTUR   0/114
NORD.PROG   0/32
NORD.SOFTWARE   0/88
NORD.TEKNIK   0/58
NORD   0/453
OCCULT_CHAT   0/93
OS2BBS   0/787
OS2DOSBBS   0/580
OS2HW   0/42
OS2INET   0/37
OS2LAN   0/134
OS2PROG   0/36
OS2REXX   0/113
OS2USER-L   207
OS2   0/4831
OSDEBATE   0/18996
PASCAL   0/490
PERL   0/457
PHP   0/45
POINTS   0/405
POLITICS   0/29554
POL_INC   0/14731
PSION   103
R20_ADMIN   1133
R20_AMATORRADIO   0/2
R20_BEST_OF_FIDONET   16
R20_CHAT   0/897
R20_DEPP   0/3
R20_DEV   400
R20_ECHO2   1889
R20_ECHOPRES   0/35
R20_ESTAT   0/719
R20_FIDONETPROG...
...RAM.MYPOINT
  0/2
R20_FIDONETPROGRAM   0/22
R20_FIDONET   0/248
R20_FILEFIND   0/24
R20_FILEFOUND   0/22
R20_HIFI   0/3
R20_INFO2   3781
R20_INTERNET   0/12940
R20_INTRESSE   0/60
R20_INTR_KOM   0/99
R20_KANDIDAT.CHAT   42
R20_KANDIDAT   28
R20_KOM_DEV   112
R20_KONTROLL   0/13360
R20_KORSET   0/18
R20_LOKALTRAFIK   0/24
R20_MODERATOR   0/1852
R20_NC   76
R20_NET200   245
R20_NETWORK.OTH...
...ERNETS
  0/13
R20_OPERATIVSYS...
...TEM.LINUX
  0/44
R20_PROGRAMVAROR   0/1
R20_REC2NEC   534
R20_SFOSM   0/341
R20_SF   0/108
R20_SPRAK.ENGLISH   0/1
R20_SQUISH   107
R20_TEST   2
R20_WORST_OF_FIDONET   20
RAR   0/9
RA_MULTI   106
RA_UTIL   0/162
REGCON.EUR   0/2069
REGCON   0/13
SCIENCE   0/1206
SF   0/239
SHAREWARE_SUPPORT   0/5146
SHAREWRE   0/14
SIMPSONS   0/169
STATS_OLD1   0/2539.065
STATS_OLD2   0/2530
STATS_OLD3   0/2395.095
STATS_OLD4   0/1692.25
SURVIVOR   0/495
SYSOPS_CORNER   0/3
SYSOP   0/84
TAGLINES   0/112
TEAMOS2   0/4530
TECH   0/2617
TEST.444   0/105
TRAPDOOR   0/19
TREK   0/755
TUB   0/290
UFO   0/40
UNIX   0/1316
USA_EURLINK   0/102
USR_MODEMS   0/1
VATICAN   0/2740
VIETNAM_VETS   0/14
VIRUS   0/378
VIRUS_INFO   0/201
VISUAL_BASIC   0/473
WHITEHOUSE   0/5187
WIN2000   0/101
WIN32   0/30
WIN95   0/4291
WIN95_OLD1   0/70272
WINDOWS   0/1517
WWB_SYSOP   0/419
WWB_TECH   0/810
ZCC-PUBLIC   0/1
ZEC   4

 
4DOS   0/134
ABORTION   0/7
ALASKA_CHAT   0/506
ALLFIX_FILE   0/1313
ALLFIX_FILE_OLD1   0/7997
ALT_DOS   0/152
AMATEUR_RADIO   0/1039
AMIGASALE   0/14
AMIGA   0/331
AMIGA_INT   0/1
AMIGA_PROG   0/20
AMIGA_SYSOP   0/26
ANIME   0/15
ARGUS   0/924
ASCII_ART   0/340
ASIAN_LINK   0/651
ASTRONOMY   0/417
AUDIO   0/92
AUTOMOBILE_RACING   0/105
BABYLON5   0/17862
BAG   135
BATPOWER   0/361
BBBS.ENGLISH   0/382
BBSLAW   0/109
BBS_ADS   0/5290
BBS_INTERNET   0/507
BIBLE   0/3563
BINKD   0/1119
BINKLEY   0/215
BLUEWAVE   0/2173
CABLE_MODEMS   0/25
CBM   0/46
CDRECORD   0/66
CDROM   0/20
CLASSIC_COMPUTER   0/378
COMICS   0/15
CONSPRCY   0/899
COOKING   42003
COOKING_OLD1   0/24719
COOKING_OLD2   0/40862
COOKING_OLD3   0/37489
COOKING_OLD4   0/35496
COOKING_OLD5   9370
C_ECHO   0/189
C_PLUSPLUS   0/31
DIRTY_DOZEN   0/201
DOORGAMES   0/2333
DOS_INTERNET   0/196
duplikat   6102
ECHOLIST   0/18295
EC_SUPPORT   0/318
ELECTRONICS   0/359
ELEKTRONIK.GER   1534
ENET.LINGUISTIC   0/13
ENET.POLITICS   0/4
ENET.SOFT   0/11701
ENET.SYSOP   34332
ENET.TALKS   0/32
ENGLISH_TUTOR   0/2000
EVOLUTION   0/1335
FDECHO   0/217
FDN_ANNOUNCE   0/7068
FIDONEWS   25122
FIDONEWS_OLD1   0/49742
FIDONEWS_OLD2   0/35949
FIDONEWS_OLD3   0/30874
FIDONEWS_OLD4   0/37224
FIDO_SYSOP   12973
FIDO_UTIL   0/180
FILEFIND   0/209
FILEGATE   0/212
Möte HAM, 16712 texter
 lista första sista föregående nästa
Text 2097, 801 rader
Skriven 2008-02-07 23:00:19 av Amsat List (1:323/120.0)
Ärende: [keps]  orb08038.amsa
=============================
[keps]  orb08038.amsa

Return-Path: <keps-bounces@amsat.org>
X-Rcpt: craig.healy@chowda.com
X-UIDL: 1202442008.1557

SB KEPS @ AMSAT  $ORB08038.O
Orbital Elements  08038.OSCAR

HR AMSAT ORBITAL ELEMENTS FOR OSCAR SATELLITES
FROM WA5QGD FORT WORTH,TX February 7, 2008
Send Subscribe/unsubscribe to KEPS at 
http://www.amsat.org/mailman/listinfo/keps
BID: ORB08038.O
TO ALL RADIO AMATEURS BT

Satellite: AO-07
Catalog number: 07530
Epoch time:      08038.65043768
Element set:      98
Inclination:      101.4849 deg
RA of node:       074.4364 deg
Eccentricity:    0.0012079
Arg of perigee:   156.5756 deg
Mean anomaly:     203.5864 deg
Mean motion:   12.53573358 rev/day
Decay rate:       -2.7e-07 rev/day^2
Epoch rev:           52062
Checksum:              312

Satellite: AO-10
Catalog number: 14129
Epoch time:      08038.61210448
Element set:     466
Inclination:      025.9390 deg
RA of node:       231.6094 deg
Eccentricity:    0.6032615
Arg of perigee:   096.7648 deg
Mean anomaly:     331.0044 deg
Mean motion:   02.05871726 rev/day
Decay rate:       -6.4e-07 rev/day^2
Epoch rev:           18541
Checksum:              289

Satellite: UO-11
Catalog number: 14781
Epoch time:      08037.85743948
Element set:    0591
Inclination:      098.1708 deg
RA of node:       069.8220 deg
Eccentricity:    0.0009785
Arg of perigee:   131.7073 deg
Mean anomaly:     228.5002 deg
Mean motion:   14.79615918 rev/day
Decay rate:       2.27e-06 rev/day^2
Epoch rev:           28443
Checksum:              327

Satellite: RS-15
Catalog number: 23439
Epoch time:      08037.92731509
Element set:    0137
Inclination:      064.8209 deg
RA of node:       347.3066 deg
Eccentricity:    0.0151216
Arg of perigee:   147.7584 deg
Mean anomaly:     213.2690 deg
Mean motion:   11.27551600 rev/day
Decay rate:       -3.9e-07 rev/day^2
Epoch rev:           54016
Checksum:              293

Satellite: FO-29
Catalog number: 24278
Epoch time:      08037.92977031
Element set:    0709
Inclination:      098.5824 deg
RA of node:       331.4049 deg
Eccentricity:    0.0350428
Arg of perigee:   195.1916 deg
Mean anomaly:     163.8487 deg
Mean motion:   13.52934335 rev/day
Decay rate:       -9.4e-07 rev/day^2
Epoch rev:           56664
Checksum:              347

Satellite: SO-33
Catalog number: 25509
Epoch time:      08037.91954510
Element set:    0127
Inclination:      031.4340 deg
RA of node:       338.5655 deg
Eccentricity:    0.0355301
Arg of perigee:   319.4670 deg
Mean anomaly:     038.0047 deg
Mean motion:   14.28192201 rev/day
Decay rate:        7.5e-07 rev/day^2
Epoch rev:           48483
Checksum:              288

Satellite: AO-40
Catalog number: 26609
Epoch time:      08038.23039156
Element set:       4
Inclination:      007.3869 deg
RA of node:       098.6888 deg
Eccentricity:    0.7927499
Arg of perigee:   049.4989 deg
Mean anomaly:     356.0125 deg
Mean motion:   01.25584045 rev/day
Decay rate:      -3.78e-06 rev/day^2
Epoch rev:            3339
Checksum:              352

Satellite: VO-52
Catalog number: 28650
Epoch time:      08037.90025221
Element set:    0851
Inclination:      097.8053 deg
RA of node:       108.0281 deg
Eccentricity:    0.0026610
Arg of perigee:   206.9727 deg
Mean anomaly:     153.0145 deg
Mean motion:   14.81419141 rev/day
Decay rate:       4.83e-06 rev/day^2
Epoch rev:           14916
Checksum:              280

Satellite: PO-63
Catalog number: 29712
Epoch time:      08038.74801525
Element set:     168
Inclination:      097.8925 deg
RA of node:       099.3009 deg
Eccentricity:    0.0015298
Arg of perigee:   085.2956 deg
Mean anomaly:     275.0010 deg
Mean motion:   14.80014202 rev/day
Decay rate:       6.74e-06 rev/day^2
Epoch rev:            5817
Checksum:              311

/EX
SB KEPS @ AMSAT  $ORB08038.D
Orbital Elements  08038.MICROS

HR AMSAT ORBITAL ELEMENTS FOR THE MICROSATS
FROM WA5QGD FORT WORTH,TX February 7, 2008
Send Subscribe/unsubscribe to KEPS at 
http://www.amsat.org/mailman/listinfo/keps
BID: ORB08038.D
TO ALL RADIO AMATEURS BT

Satellite: AO-16
Catalog number: 20439
Epoch time:      08037.48110236
Element set:    0246
Inclination:      098.2166 deg
RA of node:       024.3646 deg
Eccentricity:    0.0010301
Arg of perigee:   205.4698 deg
Mean anomaly:     154.5991 deg
Mean motion:   14.31783510 rev/day
Decay rate:        8.0e-08 rev/day^2
Epoch rev:           94207
Checksum:              285

Satellite: LO-19
Catalog number: 20442
Epoch time:      08037.89965398
Element set:    0170
Inclination:      098.1927 deg
RA of node:       033.6649 deg
Eccentricity:    0.0011377
Arg of perigee:   202.6257 deg
Mean anomaly:     157.4408 deg
Mean motion:   14.32022412 rev/day
Decay rate:       -3.8e-07 rev/day^2
Epoch rev:           94228
Checksum:              313

Satellite: AO-27
Catalog number: 22825
Epoch time:      08037.51632382
Element set:     892
Inclination:      098.3663 deg
RA of node:       002.5981 deg
Eccentricity:    0.0007586
Arg of perigee:   293.2059 deg
Mean anomaly:     066.8322 deg
Mean motion:   14.29229138 rev/day
Decay rate:      -1.06e-06 rev/day^2
Epoch rev:           74896
Checksum:              331

Satellite: IO-26
Catalog number: 22826
Epoch time:      08037.52321157
Element set:    0595
Inclination:      098.3589 deg
RA of node:       003.5749 deg
Eccentricity:    0.0008235
Arg of perigee:   290.2560 deg
Mean anomaly:     069.7736 deg
Mean motion:   14.29477415 rev/day
Decay rate:        3.0e-08 rev/day^2
Epoch rev:           74905
Checksum:              325

